CAPE
0 0 1 38 24 0 0 0 0 0 0 160 303 158 412 1180 1438 1413 1436 1509 1493 1425 1301 1278 1267 1266 1556 1681 1881 2050 2040 1961 1723 1302 1466 1374 1120 1293 1372 787 716 621 1151 1546
0 0 13 33 0 5 0 0 18 0 0 112 412 319 566 866 1273 1451 1477 1465 1517 1548 1493 1399 1246 1329 1484 1726 1849 2058 2091 2254 2033 1367 1404 1531 1425 1388 148 152 103 788 612 833
0 0 10 0 2 11 12 11 4 0 0 211 184 63 406 718 946 1393 1581 1536 1537 1639 1518 1459 1275 1534 1633 1550 1586 1493 1683 1851 1154 1423 1696 1635 1295 896 168 228 128 6 1 113
0 0 0 0 2 11 27 0 0 0 0 58 91 42 36 265 633 802 1317 1525 1319 1250 1448 1498 1124 1301 1405 1380 1291 1601 1810 1592 1410 2029 1556 1567 1300 522 106 156 132 105 422 630
0 0 0 0 0 11 21 0 0 0 0 0 38 3 43 172 134 544 886 1192 1047 818 792 891 932 842 1320 1392 977 1573 2021 2098 2131 2040 1529 1784 1482 962 666 695 914 1003 1018 704
0 0 0 0 0 0 0 0 0 0 0 13 13 0 19 6 132 374 678 789 577 557 760 1029 958 1131 1367 1438 1339 1628 1589 1489 1395 1647 1985 2265 1779 1359 1132 673 642 677 614 552
0 0 0 0 0 0 0 0 26 12 10 14 0 0 1 3 72 191 419 589 528 690 1027 1100 1199 1932 1678 1654 1646 1580 1546 1403 1548 1810 2071 2323 2424 1382 907 981 748 692 506 452
0 0 0 0 0 0 0 9 32 46 40 49 11 0 21 241 258 302 253 568 413 990 1260 993 1665 2328 2019 1574 1536 1422 1614 1737 2051 1856 2347 1774 933 817 921 1030 978 804 642 514
0 0 0 0 0 0 0 0 4 4 0 0 0 0 17 256 414 444 396 605 561 1233 1289 1280 1812 2040 2021 1883 1741 1653 1656 2456 2686 2706 1681 1062 1309 1389 1343 1320 1000 432 241 81
0 0 0 0 0 0 0 0 1 0 0 0 1 7 15 467 496 408 399 626 689 1541 1383 1717 2000 2044 2055 1936 1707 1775 2825 3021 2512 1542 720 746 1112 1289 1094 682 427 223 99 77
0 0 0 0 0 0 0 0 0 0 1 1 36 88 81 238 373 507 429 647 911 1520 1400 1886 2265 2414 2459 2422 2474 2687 2485 1836 1120 1134 774 594 965 483 136 6 9 15 44 43
0 0 0 0 0 0 0 0 1 1 14 0 17 94 200 349 600 526 459 644 1186 1446 1564 1821 2117 2278 2181 2190 2054 1896 1671 1470 1347 1583 1256 682 162 8 0 0 0 0 0 0
0 0 1 1 0 1 29 8 0 11 30 98 120 252 395 446 617 609 628 689 1487 1785 1910 1896 1967 2226 2353 2314 2066 2118 2054 1847 1319 601 132 5 19 0 0 0 5 4 7 7
0 0 0 14 24 32 18 52 74 26 56 138 148 90 394 448 545 567 749 1062 1802 2116 2099 1713 1529 2031 2252 2058 2417 2419 2324 2042 1015 388 79 136 98 76 23 47 213 191 168 127
0 0 0 0 0 0 22 75 137 50 82 87 41 34 434 388 509 562 738 1427 2011 2248 2090 1641 1286 1888 2190 2217 2061 2124 2116 2150 1553 769 490 404 474 633 681 502 441 374 334 23
0 1 13 2 8 0 0 38 47 74 128 169 114 73 486 479 510 627 768 1177 1992 2272 2134 1811 1532 1559 2126 1809 1313 1330 1743 1236 497 231 478 779 1097 1076 722 699 294 321 306 11
0 0 0 11 52 10 9 6 29 65 109 138 92 154 512 611 774 646 741 1328 1877 2139 2055 2006 1528 1459 1159 902 1092 1302 1714 1129 563 494 591 802 805 686 658 673 641 562 161 1
0 0 2 29 108 20 139 331 169 84 124 203 216 234 336 880 1085 870 723 1028 1450 1956 1915 1289 462 459 911 1194 1160 1713 1502 1125 559 652 651 482 773 994 690 1067 566 219 86 48
0 6 28 14 51 53 192 303 285 314 86 210 234 231 384 1214 1400 1619 1265 1202 1532 1678 1038 398 296 537 801 1147 1737 1713 927 802 760 753 797 1185 1040 881 744 385 267 211 139 36
24 32 47 41 58 58 66 346 423 478 117 205 324 425 747 1354 657 1734 1505 1171 1042 733 502 334 454 590 742 1223 1717 1587 1112 936 1202 1418 1252 942 562 466 316 146 6 5 5 3
189 277 196 257 89 139 525 538 455 299 463 659 952 1204 1355 1676 1880 1129 1128 892 604 220 47 133 196 123 348 1067 1460 1336 1028 599 360 348 180 66 1 0 0 1 2 2 1 0
848 464 406 571 327 168 475 440 417 830 1145 1421 1422 1558 1773 1474 1069 1137 1074 854 631 424 99 37 6 28 128 659 567 175 0 0 0 0 0 0 0 0 0 0 0 0 0 0
154 570 622 585 845 838 612 1144 890 1017 1780 1721 1772 1699 1599 1482 1431 1123 855 562 268 0 0 14 0 1 0 0 1 0 0 0 0 0 0 0 0 0 0 0 0 0 0 0
351 524 464 506 620 567 605 624 679 921 1027 1666 1750 1724 1368 1287 1233 854 633 116 10 32 12 1 0 0 0 0 0 0 0 0 0 0 0 0 0 0 0 0 0 0 0 0
855 649 828 735 727 544 484 501 570 725 974 985 1613 1673 1050 864 644 563 577 544 369 147 0 0 0 0 0 0 0 0 0 0 0 0 0 0 0 0 0 0 0 0 2 0
693 802 482 420 522 568 782 551 555 756 1081 995 1495 1580 1285 900 996 1225 795 672 385 84 21 0 0 0 0 0 0 0 0 0 0 0 0 0 0 0 0 0 0 0 0 0
CIN
0 0 -4 -5 -4 0 0 0 0 0 0 -26 -27 -23 -31 -64 -74 -39 -22 -23 -9 -24 -18 -30 -68 -73 -54 -44 -44 -22 -16 -25 -53 -65 -40 -30 -42 -17 -28 -54 -79 -82 -18 0
0 0 -6 -6 0 -20 -3 0 -3 0 0 -53 -22 -13 -37 -59 -60 -52 -35 -20 -13 -5 -15 -40 -64 -70 -77 -54 -48 -45 -38 -29 -35 -56 -38 -23 -43 -36 -144 -157 -146 -42 -66 -57
0 0 -2 0 -15 -15 -5 -5 -1 0 0 -49 -25 -11 -12 -46 -96 -78 -52 -25 -19 -10 -4 -10 -33 -57 -69 -85 -68 -86 -70 -64 -86 -60 -44 -39 -74 -89 -150 -108 -116 -73 -66 -158
0 0 0 0 -2 -8 -6 -1 0 0 0 -5 -30 -2 -11 -11 -46 -106 -50 -27 -22 -19 -8 -4 -5 -35 -65 -105 -109 -85 -78 -84 -89 -44 -53 -47 -52 -74 -126 -141 -205 -200 -127 -79
0 0 0 0 0 -13 -5 0 0 0 0 0 -14 -8 -3 -31 -21 -45 -51 -20 -33 -31 -21 -18 -31 -51 -62 -104 -134 -80 -73 -62 -45 -40 -51 -41 -67 -79 -59 -55 -57 -58 -39 -48
0 0 0 0 0 0 0 0 0 0 0 -4 -8 0 -7 -17 -18 -37 -47 -43 -53 -50 -50 -36 -58 -85 -100 -116 -132 -102 -101 -114 -131 -103 -58 -24 -42 -53 -29 -43 -46 -17 -11 -7
0 0 0 0 0 0 0 -1 -6 -6 -5 -8 0 0 -2 -14 -45 -70 -63 -59 -60 -60 -48 -39 -46 -59 -114 -135 -139 -126 -125 -139 -135 -94 -40 -8 -1 -40 -57 -28 -13 -18 -4 -5
0 0 0 0 0 0 0 -6 -9 -7 -5 -7 -45 0 -6 -41 -77 -110 -87 -59 -70 -32 -33 -43 -40 -46 -77 -114 -129 -123 -106 -77 -51 -63 -16 -43 -85 -36 -11 -2 -1 -1 -1 -2
0 0 0 0 0 0 0 0 -5 -6 0 0 0 0 -26 -34 -86 -128 -89 -66 -39 -17 -46 -56 -49 -67 -84 -118 -136 -122 -75 -12 -2 -2 -65 -103 -46 -14 -2 0 0 -4 -22 -74
0 0 0 0 0 0 0 0 -2 0 0 0 -1 -20 -4 -15 -51 -109 -94 -77 -46 -42 -61 -48 -52 -66 -74 -100 -105 -84 -2 0 -3 -53 -116 -120 -69 -21 -17 -18 -20 -36 -92 -95
0 0 0 0 0 -1 0 0 0 -2 -2 -6 -4 -4 -13 -18 -33 -66 -77 -69 -52 -37 -61 -73 -69 -61 -55 -52 -32 -6 -5 -40 -77 -47 -59 -65 -21 -47 -152 -60 -50 -148 -112 -119
0 0 0 0 0 -1 0 -2 -5 -6 -4 0 -23 -4 -32 -38 -47 -39 -54 -77 -34 -40 -62 -82 -82 -48 -38 -33 -50 -53 -62 -53 -33 -28 -34 -35 -129 -236 0 0 0 0 0 0
0 0 -3 -5 0 -6 -5 -4 -1 -4 -5 -5 -6 -4 -58 -56 -74 -65 -52 -85 -64 -58 -85 -102 -105 -63 -46 -60 -71 -69 -40 -19 -33 -74 -101 -88 -153 0 0 0 -23 -22 -14 -19
0 0 -2 -8 -7 -5 -5 -4 -14 -3 -10 -11 -5 -8 -13 -33 -81 -74 -77 -86 -65 -94 -128 -149 -143 -71 -61 -64 -32 -14 -1 -3 -42 -86 -115 -112 -53 -34 -68 -52 -18 -9 -9 -11
0 0 0 0 0 0 -6 -6 -9 -4 -5 -7 -128 -17 -7 -36 -45 -103 -117 -112 -91 -110 -137 -157 -121 -71 -49 -39 -31 -24 -22 -16 -21 -44 -76 -63 -28 -5 -7 -10 -11 -8 -5 -18
0 -4 -9 -22 -18 0 0 -10 -3 -9 -3 -6 -4 -10 -14 -81 -79 -107 -115 -104 -104 -123 -110 -115 -65 -69 -45 -53 -57 -34 -23 -39 -67 -67 -52 -35 -9 -2 -15 -17 -12 -4 0 -12
0 0 0 -7 -13 -20 -13 -11 -5 -4 -5 -7 -3 -5 -25 -17 -58 -74 -102 -117 -91 -46 -38 -27 -25 -52 -113 -142 -102 -48 -19 -54 -78 -74 -67 -33 -20 -21 -24 -12 -1 -2 -9 -4
0 0 -19 -7 -25 -10 -10 -27 -6 -12 -9 -4 -11 -15 -17 -32 -63 -133 -144 -155 -68 -42 -18 -92 -208 -113 -81 -61 -61 -18 -29 -54 -67 -54 -37 -33 -15 -6 -7 -1 -1 -8 -11 -17
0 -36 -25 -11 -11 -4 -12 -39 -34 -17 -4 -11 -16 -14 -22 -62 -83 -185 -186 -190 -114 -86 -172 -303 -241 -103 -52 -13 -8 -24 -52 -55 -48 -25 -8 -1 -5 -1 -1 0 -1 -5 -33 -1
-82 -46 -16 -23 -2 -3 -3 -19 -40 -35 -4 -3 -22 -18 -32 -57 -15 -162 -168 -211 -246 -278 -284 -297 -194 -102 -33 -1 -4 -25 -33 -28 -3 -1 -1 -8 -17 -7 -3 -12 -2 -1 -1 -1
-71 -35 -14 -8 -4 -4 -58 -83 -90 -20 -25 -80 -58 -59 -54 -41 -110 -334 -248 -235 -274 -387 -401 -318 -211 -245 -154 -15 -3 -21 -40 -66 -82 -67 -86 -98 -7 0 0 -1 -1 -1 -1 -1
-24 -14 -14 -16 -7 -3 -104 -125 -37 -101 -96 -69 -90 -59 -80 -194 -309 -246 -208 -218 -250 -283 -392 -446 -193 -188 -128 -28 -66 -171 0 0 0 0 0 0 0 0 0 0 0 0 0 0
-37 -30 -8 -23 -18 -134 -121 -103 -151 -112 -60 -63 -56 -73 -103 -133 -143 -183 -183 -200 -265 0 0 -431 -45 -40 0 -13 -27 0 0 0 0 0 0 0 0 0 0 0 0 0 0 0
-71 -143 -47 -69 -67 -99 -119 -158 -144 -121 -68 -43 -56 -44 -66 -67 -85 -120 -150 -272 -352 -335 -368 -200 0 0 0 0 0 0 0 0 0 0 0 0 0 0 0 0 0 0 0 0
-65 -174 -78 -78 -81 -122 -135 -132 -111 -96 -71 -58 -51 -39 -38 -55 -49 -92 -125 -150 -159 -221 0 0 0 0 0 0 0 0 0 0 0 0 0 0 0 0 0 0 0 0 -1 0
-136 -55 -39 -7 -96 -77 -81 -117 -107 -69 -35 -48 -49 -59 -46 -62 -53 -64 -108 -122 -158 -237 -244 0 0 0 0 0 0 0 0 0 0 0 0 0 0 0 0 0 0 0 0 0
Wind_Speed
8 5 8 9 8 16 17 18 20 18 19 19 17 10 13 13 13 13 14 15 15 15 15 16 15 15 15 16 17 16 14 13 10 8 7 8 10 12 18 26 28 27 23 25
9 11 5 15 8 15 16 18 19 15 20 17 16 13 13 12 11 11 13 15 14 14 15 15 15 16 16 16 16 17 16 14 15 14 13 10 10 14 20 24 24 20 22 26
9 9 12 3 2 10 9 21 20 21 21 12 13 8 10 13 10 9 11 13 14 15 15 15 15 16 17 17 17 16 16 17 17 14 12 11 10 12 15 19 22 17 21 26
18 13 9 9 16 12 27 12 21 22 21 17 17 19 10 14 10 10 8 10 14 14 14 14 14 15 16 16 16 16 17 17 16 15 13 12 12 10 12 10 9 24 23 27
11 13 8 10 22 14 28 18 22 21 21 9 11 21 18 18 11 8 8 9 10 12 13 14 14 16 16 17 17 17 18 18 17 15 13 13 13 9 8 8 8 5 18 26
19 18 11 16 14 15 15 22 24 21 22 20 15 21 19 19 21 17 10 9 10 10 12 14 15 16 17 18 18 18 18 18 17 15 15 13 12 10 9 11 9 10 11 24
13 10 7 16 11 13 17 28 9 5 6 20 16 19 22 20 21 18 10 11 9 10 11 11 14 16 17 17 18 17 16 16 16 16 15 13 12 12 12 10 10 7 17 27
14 14 7 7 11 5 17 31 22 18 28 22 14 22 20 20 20 16 12 14 14 11 9 10 12 14 15 16 15 15 14 14 14 15 15 15 15 15 16 16 4 5 8 9
17 26 8 12 16 28 9 9 27 26 22 28 28 18 9 17 17 14 11 15 17 14 8 9 11 13 13 13 13 14 14 13 13 14 15 15 15 17 21 21 19 25 9 3
22 24 13 9 13 16 20 16 2 9 26 26 20 21 21 19 16 11 8 16 19 14 13 13 13 13 13 13 13 13 13 12 12 13 14 15 16 16 20 21 23 24 25 28
19 26 12 9 12 6 10 11 20 25 22 25 21 16 18 19 17 7 5 16 19 13 13 16 13 13 13 14 13 13 11 11 11 12 13 14 16 18 19 20 20 21 24 26
27 20 8 9 11 18 22 21 25 22 15 23 22 20 16 19 17 8 10 19 13 12 13 14 14 13 13 13 12 11 9 8 10 11 12 14 16 18 20 20 20 22 23 23
18 22 11 8 9 12 14 19 28 26 22 18 23 15 15 18 15 12 7 14 14 12 11 11 11 10 11 11 10 9 8 8 8 9 11 13 15 16 18 19 20 22 25 26
22 26 20 8 5 11 12 17 23 26 15 7 15 19 15 18 14 6 18 13 12 12 11 9 8 8 8 8 8 8 8 9 9 9 9 12 13 15 17 19 20 21 25 27
31 32 27 16 15 15 21 16 16 23 24 22 18 18 16 20 16 7 6 9 10 11 11 9 7 7 7 8 8 9 10 10 11 9 10 12 14 17 20 21 21 23 25 28
25 30 27 29 21 22 23 19 15 15 18 23 24 26 16 19 18 10 3 4 8 8 6 4 4 7 7 6 7 8 9 9 9 8 12 16 18 18 23 22 24 26 26 27
14 20 18 18 21 22 24 15 5 8 15 15 19 21 17 19 20 17 10 3 1 1 2 2 5 11 7 5 8 8 7 8 8 8 12 15 18 20 25 24 24 23 24 25
23 28 20 23 16 26 17 13 7 12 15 11 15 20 21 20 20 21 14 8 4 3 1 7 12 12 9 8 9 9 8 8 9 12 14 16 19 22 22 20 22 25 25 27
36 21 21 19 23 18 14 8 6 10 16 6 13 18 18 18 15 20 16 10 5 4 6 7 12 12 13 11 11 10 10 12 14 17 20 23 24 25 24 25 26 27 28 29
27 30 25 20 30 27 16 8 11 16 21 15 14 16 18 17 21 17 14 9 6 5 7 12 14 12 15 16 13 11 13 15 18 21 22 24 25 26 27 29 30 31 32 33
9 16 11 15 22 15 13 12 13 19 21 17 16 15 15 16 21 9 9 6 5 5 6 10 13 14 16 20 16 13 15 18 21 23 24 26 27 27 27 30 32 34 34 35
16 15 17 18 21 21 15 14 16 19 18 19 18 15 13 10 10 8 7 6 5 5 6 7 12 13 19 16 12 14 17 20 23 24 26 27 29 30 31 32 32 32 32 32
19 19 19 20 18 16 14 20 17 18 17 16 14 10 9 9 9 9 9 7 6 7 11 11 5 9 7 9 12 16 20 23 25 27 28 29 30 30 30 31 31 32 32 33
20 25 23 23 18 21 17 12 15 14 15 12 10 8 10 10 8 7 8 9 10 10 11 11 12 11 9 11 15 18 23 26 28 29 30 29 29 30 30 29 30 31 32 34
22 20 24 26 24 22 18 15 13 9 10 11 7 5 8 9 8 8 9 9 10 10 10 11 11 10 11 14 18 21 24 26 28 27 27 27 28 29 29 29 29 30 30 33
23 23 23 24 19 21 18 15 10 10 7 9 5 5 8 10 7 7 10 10 10 11 11 11 11 11 13 15 19 22 24 25 26 25 25 26 27 28 29 30 31 26 27 30
Wind_Direction
165 221 175 154 317 298 303 300 287 319 310 272 351 74 43 69 107 124 126 129 129 119 122 119 127 137 139 143 148 145 135 129 115 101 81 31 3 357 331 312 303 300 309 306
265 194 212 284 306 300 301 294 291 322 295 323 358 26 34 42 115 126 135 146 137 130 123 130 129 130 135 127 128 138 137 127 137 140 137 97 55 346 334 347 325 308 309 308
225 241 267 244 299 309 321 282 294 279 277 19 19 100 62 29 66 102 130 137 147 147 146 132 127 134 132 126 116 122 137 138 143 140 107 99 93 27 6 18 359 331 317 306
259 268 250 175 170 292 234 317 271 267 266 306 334 311 54 15 47 48 86 97 129 130 130 146 133 127 136 131 125 119 134 143 148 133 115 120 128 120 44 50 86 323 324 316
252 251 237 174 179 282 251 289 264 262 230 17 29 298 346 353 48 79 70 64 78 81 93 111 118 115 125 127 126 121 117 126 130 125 129 125 141 131 106 85 97 106 280 313
264 264 247 179 273 274 290 259 248 266 263 299 335 295 309 340 335 360 78 77 60 47 47 70 78 105 109 115 118 117 113 115 115 112 109 119 123 128 108 67 64 54 42 348
252 258 263 259 261 274 272 211 309 358 349 300 337 310 295 312 308 342 81 95 76 63 51 43 70 93 100 109 113 115 114 111 108 111 98 97 91 81 66 67 59 59 11 335
246 241 194 253 194 200 169 210 199 300 262 294 343 301 311 317 324 13 100 112 110 81 5 16 45 80 89 100 102 107 109 103 99 100 94 70 58 47 32 27 159 203 238 247
248 252 215 266 258 239 283 276 256 271 293 276 260 326 2 328 341 11 83 119 125 94 10 27 45 64 74 78 88 98 102 87 82 78 70 66 54 27 3 2 22 343 56 215
254 246 266 243 256 259 263 273 348 266 270 283 303 308 307 333 332 6 75 130 128 100 82 68 68 67 65 66 75 80 78 67 61 60 54 51 43 40 16 5 360 0 359 343
256 242 257 244 241 240 277 287 272 269 283 285 302 324 351 344 342 9 83 135 131 111 101 100 82 75 72 74 76 75 67 63 58 40 37 36 34 34 31 24 24 23 14 9
237 246 240 184 264 268 261 272 263 271 302 275 292 312 357 343 359 37 121 142 129 122 114 109 98 87 82 77 74 71 66 54 63 46 36 35 31 27 28 32 32 26 18 20
233 241 231 240 268 275 285 280 244 243 267 290 284 347 359 348 15 52 87 132 136 131 121 112 97 92 90 84 79 74 73 68 67 45 31 29 29 30 30 29 25 16 10 6
235 237 243 194 232 257 275 275 252 246 240 330 309 310 350 340 353 30 155 131 135 142 137 123 107 105 98 80 73 62 69 89 86 67 27 27 17 14 7 7 10 10 6 2
229 233 238 264 265 272 262 273 276 263 269 281 317 314 338 338 354 7 92 122 133 143 146 128 91 67 85 48 56 61 83 87 96 71 38 22 8 357 351 350 356 354 354 353
231 238 245 246 258 261 264 272 288 299 301 291 296 293 330 335 338 1 64 145 154 148 139 119 84 11 28 47 46 58 78 83 80 47 357 349 351 350 343 346 341 339 344 348
212 241 244 251 258 270 269 280 320 340 323 320 312 314 333 327 331 334 334 330 223 305 335 358 359 333 4 54 68 59 68 71 59 33 11 356 349 346 338 339 342 347 348 349
167 168 240 248 266 257 282 296 331 325 326 329 321 318 318 321 330 328 338 337 331 337 79 349 335 343 22 21 25 31 44 28 11 360 354 352 348 345 347 351 349 345 344 343
210 225 241 256 257 280 299 314 325 327 325 339 318 317 318 323 340 336 343 347 355 346 329 339 340 344 338 347 2 14 15 358 347 341 337 336 338 340 342 342 341 341 339 339
228 230 247 259 254 268 297 317 316 324 313 325 322 318 318 318 310 323 344 8 7 351 338 332 327 342 332 315 335 353 355 351 343 337 338 340 341 340 339 338 337 336 334 333
238 251 250 273 272 296 315 316 310 305 312 329 331 332 331 325 315 343 350 5 33 31 1 352 338 341 342 302 310 338 350 345 343 341 340 340 341 340 340 337 335 332 332 331
256 262 268 276 277 283 305 304 307 316 318 323 329 334 344 4 18 24 34 56 60 72 76 15 358 325 333 312 344 344 348 349 346 345 344 342 340 338 336 335 336 336 337 336
265 273 281 279 297 305 310 304 314 315 318 331 336 5 27 32 37 56 67 59 35 358 335 337 24 30 38 9 352 348 350 349 346 344 341 340 339 340 341 339 339 340 340 339
275 270 281 288 296 297 310 327 318 324 320 340 358 36 38 40 43 44 23 15 18 23 31 46 60 64 55 15 357 356 348 343 341 339 339 341 343 343 345 346 345 344 342 339
276 286 281 282 291 300 307 315 319 327 330 344 5 43 40 54 39 45 41 35 45 50 48 52 53 51 31 11 1 355 352 348 346 346 346 347 347 347 347 350 349 348 347 343
280 282 283 286 306 302 314 318 315 317 328 353 40 62 49 25 351 40 49 54 60 58 58 52 51 38 23 12 3 358 354 352 351 352 353 354 351 351 351 351 350 355 353 349